Flag for Canada Weather past 2 weeks in Niagara Falls, Ontario, Canada

Now
28 °F

Overcast.


Feels Like: 19 °F
Forecast: 25 / 29 °F
Wind: 10 mph from Northwest

Location: Niagara Falls International Airport

Current Time: Dec 18, 2014 at 11:04:16 PM

Latest Report: Dec 18, 2014 at 9:53 PM


Visibility: 10 mi

Pressure: 30.12 "Hg

Humidity: 81%

Dew point: 23 °F

Location of Niagara FallsLocation

Historic Weather in Niagara Falls — Graph

°F

Niagara Falls temperature yesterday

Maximum temperature yesterday: 42 °F (at 2:53 AM)
Minimum temperature yesterday: 29 °F (at 11:53 PM)
Average temperature yesterday: 35 °F

Past Weeks' High & Low Weather Summary

 TemperatureHumidityPressure
High44 °F (Dec 16, 5:53 PM)100% (Dec 15, 11:53 PM)30.79 "Hg (Dec 15, 11:53 PM)
Low22 °F (Dec 8, 4:53 AM)28% (Dec 8, 2:53 PM)29.69 "Hg (Dec 16, 2:04 PM)
Average32 °F81%30.15 "Hg
* Reported Dec 3 8:53 PM — Dec 18 8:53 PM, Niagara Falls, Weather by CustomWeather, © 2014

Note: Actual official high and low records may vary slightly from our data, if they occured in-between our weather recording intervals... More about our weather records

Advertising

Niagara Falls weather history for previous 24 hours

 ConditionsComfort  
Time TempWeatherWind HumidityBarometerVisibility
8:53 PM
Dec 18
29 °FOvercast.13 mph82%30.13 "Hg10 mi
7:53 PM29 °FOvercast.9 mph85%30.14 "Hg10 mi
6:53 PM30 °FLight snow. Overcast.13 mph85%30.14 "Hg10 mi
5:53 PM30 °FLight freezing rain. Ice fog.12 mph89%30.14 "Hg4 mi
4:53 PM30 °FLight freezing rain. Ice fog.12 mph89%30.12 "Hg5 mi
3:53 PM31 °FOvercast.13 mph82%30.11 "Hg10 mi
2:53 PM31 °FOvercast.10 mph85%30.10 "Hg10 mi
1:53 PM31 °FLight freezing rain. Overcast.15 mph82%30.10 "Hg7 mi
12:53 PM31 °FOvercast.9 mph82%30.11 "Hg10 mi
11:53 AM32 °FMostly cloudy.12 mph79%30.12 "Hg10 mi
10:53 AM32 °FOvercast.13 mph79%30.13 "Hg10 mi
9:53 AM32 °FMostly cloudy.14 mph79%30.13 "Hg10 mi
8:53 AM31 °FLight snow. Mostly cloudy.8 mph85%30.13 "Hg8 mi
7:53 AM30 °FMostly cloudy.13 mph85%30.12 "Hg10 mi
6:59 AM30 °FOvercast.15 mph85%30.07 "Hg10 mi
5:53 AM30 °FMostly cloudy.15 mph82%30.10 "Hg10 mi
4:53 AM30 °FOvercast.16 mph79%30.09 "Hg10 mi
3:53 AM30 °FMostly cloudy.15 mph79%30.08 "Hg10 mi
2:53 AM30 °FOvercast.15 mph79%30.07 "Hg10 mi
1:53 AM30 °FOvercast.18 mph79%30.06 "Hg10 mi
12:53 AM29 °FPassing clouds.18 mph79%30.04 "Hg10 mi
11:53 PM
Dec 17
29 °FPassing clouds.20 mph82%30.03 "Hg10 mi
11:03 PM30 °FLight snow. Mostly cloudy.18 mph82%29.99 "Hg8 mi
Weather by CustomWeather, © 2014

See weather overviewHow to use our weather pages